Location: Newark
(52.3500°N, 175.9667°E)
Time: 00:59:26
(UTC+00:00)

N. Korean satellite - Pass Details

Date: 03 March 2021
Orbit: 453 x 499 km, 97.2° (Epoch: 11 April)

Event Time Altitude Azimuth Distance (km) Brightness Sun altitude
Rises 17:56:30 0° 12° (NNE) 2,519 10.4 -10.0°
Reaches altitude 10° 17:58:33 10° 12° (NNE) 1,644 9.4 -9.7°
Maximum altitude 18:02:05 85° 284° (WNW) 485 6.5 -9.1°
Drops below altitude 10° 18:05:39 10° 197° (SSW) 1,657 9.1 -8.6°
Sets 18:07:43 0° 196° (SSW) 2,540 10.0 -8.3°
